Private Wetterstation Wechselburg
Wetterdaten: Mittwoch, 04.08.2021
Datum Zeit Temp. +2m Bodentemp. Temp.+5cm Temp. Wind Windchill X Diff Temp. Feuchte +2m Feuchte +5cm Luftdruck Regen Wind Richtung Richtung Sonnenschein Taupunkt Windchill Windben
04.08.2021 00:00 11,2 C 18,5 C 12,4 C 12,1 C 12,1 C 0,9 C 88 % 93 % 1013,4 hPa 0,0 l/m 0,0 km/h (0 Bft) N 360 0 min 9,3 C 12,1 C 0,0 km/h (0 Bft)
04.08.2021 00:05 11,2 C 18,5 C 12,4 C 11,9 C 11,9 C 0,7 C 88 % 93 % 1013,4 hPa 0,0 l/m 0,0 km/h (0 Bft) N 360 0 min 9,3 C 11,9 C 0,0 km/h (0 Bft)
04.08.2021 00:10 11,1 C 18,5 C 12,2 C 11,8 C 11,8 C 0,7 C 88 % 93 % 1013,4 hPa 0,0 l/m 0,0 km/h (0 Bft) N-NO 22 0 min 9,2 C 11,8 C 0,0 km/h (0 Bft)
04.08.2021 00:15 11,1 C 18,5 C 12,1 C 11,8 C 11,8 C 0,7 C 88 % 93 % 1013,4 hPa 0,0 l/m 0,0 km/h (0 Bft) N-NO 22 0 min 9,2 C 11,8 C 0,0 km/h (0 Bft)
04.08.2021 00:20 11,0 C 18,5 C 12,2 C 11,9 C 11,9 C 0,9 C 88 % 93 % 1013,4 hPa 0,0 l/m 0,0 km/h (0 Bft) N-NW 337 0 min 9,1 C 11,9 C 0,0 km/h (0 Bft)
04.08.2021 00:25 11,0 C 18,5 C 12,3 C 11,9 C 11,9 C 0,9 C 88 % 93 % 1013,4 hPa 0,0 l/m 0,0 km/h (0 Bft) W-NW 292 0 min 9,1 C 11,9 C 0,0 km/h (0 Bft)
04.08.2021 00:30 11,1 C 18,5 C 12,2 C 11,9 C 11,9 C 0,8 C 88 % 93 % 1013,4 hPa 0,0 l/m 0,0 km/h (0 Bft) W-NW 292 0 min 9,2 C 11,9 C 0,0 km/h (0 Bft)
04.08.2021 00:35 11,1 C 18,5 C 12,2 C 11,9 C 11,9 C 0,8 C 88 % 93 % 1013,5 hPa 0,0 l/m 0,0 km/h (0 Bft) NW 315 0 min 9,2 C 11,9 C 0,0 km/h (0 Bft)
04.08.2021 00:40 11,0 C 18,5 C 12,2 C 11,9 C 11,9 C 0,9 C 88 % 93 % 1013,5 hPa 0,0 l/m 0,0 km/h (0 Bft) NW 315 0 min 9,1 C 11,9 C 0,0 km/h (0 Bft)
04.08.2021 00:45 11,0 C 18,5 C 12,3 C 11,9 C 11,9 C 0,9 C 88 % 93 % 1013,5 hPa 0,0 l/m 0,0 km/h (0 Bft) NW 315 0 min 9,1 C 11,9 C 0,0 km/h (0 Bft)
04.08.2021 00:50 10,9 C 18,5 C 12,3 C 12,0 C 12,0 C 1,1 C 88 % 93 % 1013,5 hPa 0,0 l/m 0,0 km/h (0 Bft) NW 315 0 min 9,0 C 12,0 C 0,0 km/h (0 Bft)
04.08.2021 00:55 11,1 C 18,6 C 12,3 C 12,1 C 12,1 C 1,0 C 88 % 93 % 1012,8 hPa 0,0 l/m 0,0 km/h (0 Bft) NW 315 0 min 9,2 C 12,1 C 0,0 km/h (0 Bft)
04.08.2021 01:00 11,1 C 18,6 C 12,4 C 12,2 C 12,2 C 1,1 C 88 % 93 % 1012,8 hPa 0,0 l/m 0,0 km/h (0 Bft) NW 315 0 min 9,2 C 12,2 C 0,0 km/h (0 Bft)
04.08.2021 01:05 11,1 C 18,6 C 12,3 C 12,3 C 12,3 C 1,2 C 88 % 93 % 1012,8 hPa 0,0 l/m 0,0 km/h (0 Bft) NW 315 0 min 9,2 C 12,3 C 0,0 km/h (0 Bft)
04.08.2021 01:10 11,1 C 18,6 C 12,3 C 12,3 C 12,3 C 1,2 C 88 % 93 % 1012,8 hPa 0,0 l/m 0,0 km/h (0 Bft) NW 315 0 min 9,2 C 12,3 C 0,0 km/h (0 Bft)
04.08.2021 01:15 11,0 C 18,6 C 12,5 C 12,4 C 12,4 C 1,4 C 88 % 93 % 1013,1 hPa 0,0 l/m 0,0 km/h (0 Bft) NW 315 0 min 9,1 C 12,4 C 0,0 km/h (0 Bft)
04.08.2021 01:20 11,1 C 18,6 C 12,5 C 12,4 C 12,4 C 1,3 C 88 % 93 % 1013,1 hPa 0,0 l/m 0,0 km/h (0 Bft) NW 315 0 min 9,2 C 12,4 C 0,0 km/h (0 Bft)
04.08.2021 01:25 11,1 C 18,6 C 12,5 C 12,5 C 12,5 C 1,4 C 88 % 93 % 1013,1 hPa 0,0 l/m 0,0 km/h (0 Bft) NW 315 0 min 9,2 C 12,5 C 0,0 km/h (0 Bft)
04.08.2021 01:30 11,2 C 18,6 C 12,5 C 12,4 C 12,4 C 1,2 C 88 % 93 % 1013,1 hPa 0,0 l/m 0,0 km/h (0 Bft) NW 315 0 min 9,3 C 12,4 C 0,0 km/h (0 Bft)
04.08.2021 01:35 11,2 C 18,6 C 12,5 C 12,5 C 12,5 C 1,3 C 88 % 93 % 1013,0 hPa 0,0 l/m 0,0 km/h (0 Bft) NW 315 0 min 9,3 C 12,5 C 0,0 km/h (0 Bft)
04.08.2021 01:40 11,2 C 18,6 C 12,6 C 12,5 C 12,5 C 1,3 C 88 % 93 % 1013,0 hPa 0,0 l/m 0,0 km/h (0 Bft) NW 315 0 min 9,3 C 12,5 C 0,0 km/h (0 Bft)
04.08.2021 01:45 11,2 C 18,6 C 12,6 C 12,5 C 12,5 C 1,3 C 88 % 93 % 1013,0 hPa 0,0 l/m 0,0 km/h (0 Bft) NW 315 0 min 9,3 C 12,5 C 0,0 km/h (0 Bft)
04.08.2021 01:50 11,3 C 18,6 C 12,6 C 12,6 C 12,6 C 1,3 C 88 % 93 % 1013,0 hPa 0,0 l/m 0,0 km/h (0 Bft) NW 315 0 min 9,4 C 12,6 C 0,0 km/h (0 Bft)
04.08.2021 01:55 11,3 C 18,6 C 12,6 C 12,6 C 12,6 C 1,3 C 88 % 93 % 1013,2 hPa 0,0 l/m 0,0 km/h (0 Bft) NW 315 0 min 9,4 C 12,6 C 0,0 km/h (0 Bft)
04.08.2021 02:00 11,3 C 18,6 C 12,7 C 12,6 C 12,6 C 1,3 C 88 % 93 % 1013,2 hPa 0,0 l/m 0,0 km/h (0 Bft) NW 315 0 min 9,4 C 12,6 C 0,0 km/h (0 Bft)
04.08.2021 02:05 11,4 C 18,5 C 12,7 C 12,6 C 12,6 C 1,2 C 88 % 93 % 1013,2 hPa 0,0 l/m 0,0 km/h (0 Bft) W-NW 292 0 min 9,5 C 12,6 C 0,0 km/h (0 Bft)
04.08.2021 02:10 11,5 C 18,5 C 12,6 C 12,6 C 12,6 C 1,1 C 88 % 93 % 1013,2 hPa 0,0 l/m 0,0 km/h (0 Bft) NW 315 0 min 9,6 C 12,6 C 0,0 km/h (0 Bft)
04.08.2021 02:15 11,5 C 18,6 C 12,7 C 12,6 C 12,6 C 1,1 C 88 % 93 % 1012,7 hPa 0,0 l/m 0,0 km/h (0 Bft) W-NW 292 0 min 9,6 C 12,6 C 0,0 km/h (0 Bft)
04.08.2021 02:20 11,5 C 18,5 C 12,6 C 12,6 C 12,6 C 1,1 C 88 % 93 % 1012,7 hPa 0,0 l/m 0,0 km/h (0 Bft) W-NW 292 0 min 9,6 C 12,6 C 0,0 km/h (0 Bft)
04.08.2021 02:25 11,5 C 18,6 C 12,6 C 12,5 C 12,5 C 1,0 C 88 % 93 % 1012,7 hPa 0,0 l/m 0,0 km/h (0 Bft) W-NW 292 0 min 9,6 C 12,5 C 0,0 km/h (0 Bft)
04.08.2021 02:30 11,5 C 18,5 C 12,7 C 12,5 C 12,5 C 1,0 C 88 % 93 % 1012,7 hPa 0,0 l/m 0,0 km/h (0 Bft) W-NW 292 0 min 9,6 C 12,5 C 0,0 km/h (0 Bft)
04.08.2021 02:35 11,5 C 18,4 C 12,7 C 12,5 C 12,5 C 1,0 C 88 % 93 % 1013,3 hPa 0,0 l/m 0,0 km/h (0 Bft) NW 315 0 min 9,6 C 12,5 C 0,0 km/h (0 Bft)
04.08.2021 02:40 11,4 C 18,4 C 12,7 C 12,5 C 12,5 C 1,1 C 88 % 93 % 1013,3 hPa 0,0 l/m 0,0 km/h (0 Bft) NW 315 0 min 9,5 C 12,5 C 0,0 km/h (0 Bft)
04.08.2021 02:45 11,4 C 18,4 C 12,7 C 12,5 C 12,5 C 1,1 C 88 % 93 % 1013,3 hPa 0,0 l/m 0,0 km/h (0 Bft) W-NW 292 0 min 9,5 C 12,5 C 0,0 km/h (0 Bft)
04.08.2021 02:50 11,5 C 18,4 C 12,7 C 12,5 C 12,5 C 1,0 C 88 % 93 % 1013,3 hPa 0,0 l/m 0,0 km/h (0 Bft) W-NW 292 0 min 9,6 C 12,5 C 0,0 km/h (0 Bft)
04.08.2021 02:55 11,4 C 18,4 C 12,6 C 12,5 C 12,5 C 1,1 C 88 % 93 % 1013,2 hPa 0,0 l/m 0,0 km/h (0 Bft) NW 315 0 min 9,5 C 12,5 C 0,0 km/h (0 Bft)
04.08.2021 03:00 11,4 C 18,4 C 12,7 C 12,5 C 12,5 C 1,1 C 88 % 93 % 1013,2 hPa 0,0 l/m 0,0 km/h (0 Bft) NW 315 0 min 9,5 C 12,5 C 0,0 km/h (0 Bft)
04.08.2021 03:05 11,5 C 18,4 C 12,7 C 12,6 C 12,6 C 1,1 C 88 % 93 % 1013,2 hPa 0,0 l/m 0,0 km/h (0 Bft) NW 315 0 min 9,6 C 12,6 C 0,0 km/h (0 Bft)
04.08.2021 03:10 11,4 C 18,4 C 12,7 C 12,6 C 12,6 C 1,2 C 88 % 93 % 1013,2 hPa 0,0 l/m 0,0 km/h (0 Bft) NW 315 0 min 9,5 C 12,6 C 0,0 km/h (0 Bft)
04.08.2021 03:15 11,5 C 18,4 C 12,7 C 12,6 C 12,6 C 1,1 C 88 % 93 % 1013,1 hPa 0,0 l/m 0,0 km/h (0 Bft) NW 315 0 min 9,6 C 12,6 C 0,0 km/h (0 Bft)
04.08.2021 03:20 11,5 C 18,4 C 12,7 C 12,6 C 12,6 C 1,1 C 88 % 93 % 1013,1 hPa 0,0 l/m 0,0 km/h (0 Bft) NW 315 0 min 9,6 C 12,6 C 0,0 km/h (0 Bft)
04.08.2021 03:25 11,5 C 18,4 C 12,7 C 12,6 C 12,6 C 1,1 C 88 % 93 % 1013,1 hPa 0,0 l/m 0,0 km/h (0 Bft) NW 315 0 min 9,6 C 12,6 C 0,0 km/h (0 Bft)
04.08.2021 03:30 11,4 C 18,4 C 12,7 C 12,6 C 12,6 C 1,2 C 88 % 93 % 1013,1 hPa 0,0 l/m 0,0 km/h (0 Bft) NW 315 0 min 9,5 C 12,6 C 0,0 km/h (0 Bft)
04.08.2021 03:35 11,5 C 18,4 C 12,7 C 12,6 C 12,6 C 1,1 C 88 % 93 % 1013,2 hPa 0,0 l/m 0,0 km/h (0 Bft) NW 315 0 min 9,6 C 12,6 C 0,0 km/h (0 Bft)
04.08.2021 03:40 11,6 C 18,4 C 12,7 C 12,6 C 12,6 C 1,0 C 88 % 93 % 1013,2 hPa 0,0 l/m 0,0 km/h (0 Bft) NW 315 0 min 9,7 C 12,6 C 0,0 km/h (0 Bft)
04.08.2021 03:45 11,5 C 18,4 C 12,7 C 12,6 C 12,6 C 1,1 C 88 % 93 % 1013,2 hPa 0,0 l/m 0,0 km/h (0 Bft) NW 315 0 min 9,6 C 12,6 C 0,0 km/h (0 Bft)
04.08.2021 03:50 11,5 C 18,4 C 12,7 C 12,5 C 12,5 C 1,0 C 88 % 93 % 1013,2 hPa 0,0 l/m 0,0 km/h (0 Bft) W-NW 292 0 min 9,6 C 12,5 C 0,0 km/h (0 Bft)
04.08.2021 03:55 11,5 C 18,4 C 12,7 C 12,5 C 12,5 C 1,0 C 88 % 93 % 1013,6 hPa 0,0 l/m 0,0 km/h (0 Bft) NW 315 0 min 9,6 C 12,5 C 0,0 km/h (0 Bft)
04.08.2021 04:00 11,5 C 18,4 C 12,7 C 12,5 C 12,5 C 1,0 C 88 % 93 % 1013,6 hPa 0,0 l/m 0,0 km/h (0 Bft) NW 315 0 min 9,6 C 12,5 C 0,0 km/h (0 Bft)
04.08.2021 04:05 11,5 C 18,4 C 12,7 C 12,5 C 12,5 C 1,0 C 88 % 93 % 1013,6 hPa 0,0 l/m 0,0 km/h (0 Bft) NW 315 0 min 9,6 C 12,5 C 0,0 km/h (0 Bft)
04.08.2021 04:10 11,5 C 18,4 C 12,7 C 12,5 C 12,5 C 1,0 C 88 % 93 % 1013,6 hPa 0,0 l/m 0,0 km/h (0 Bft) NW 315 0 min 9,6 C 12,5 C 0,0 km/h (0 Bft)
04.08.2021 04:15 11,5 C 18,4 C 12,7 C 12,6 C 12,6 C 1,1 C 89 % 93 % 1012,9 hPa 0,0 l/m 0,0 km/h (0 Bft) NW 315 0 min 9,8 C 12,6 C 0,0 km/h (0 Bft)
04.08.2021 04:20 11,5 C 18,4 C 12,7 C 12,6 C 12,6 C 1,1 C 88 % 93 % 1012,9 hPa 0,0 l/m 0,0 km/h (0 Bft) NW 315 0 min 9,6 C 12,6 C 0,0 km/h (0 Bft)
04.08.2021 04:25 11,5 C 18,4 C 12,8 C 12,6 C 12,6 C 1,1 C 88 % 93 % 1012,9 hPa 0,0 l/m 0,0 km/h (0 Bft) NW 315 0 min 9,6 C 12,6 C 0,0 km/h (0 Bft)
04.08.2021 04:30 11,6 C 18,4 C 12,8 C 12,7 C 12,7 C 1,1 C 88 % 93 % 1012,9 hPa 0,0 l/m 0,0 km/h (0 Bft) NW 315 0 min 9,7 C 12,7 C 0,0 km/h (0 Bft)
04.08.2021 04:35 11,6 C 18,4 C 12,8 C 12,7 C 12,7 C 1,1 C 88 % 93 % 1013,1 hPa 0,0 l/m 0,0 km/h (0 Bft) NW 315 0 min 9,7 C 12,7 C 0,0 km/h (0 Bft)
04.08.2021 04:40 11,6 C 18,4 C 12,8 C 12,7 C 12,7 C 1,1 C 88 % 93 % 1013,1 hPa 0,0 l/m 0,0 km/h (0 Bft) NW 315 0 min 9,7 C 12,7 C 0,0 km/h (0 Bft)
04.08.2021 04:45 11,6 C 18,4 C 12,8 C 12,7 C 12,7 C 1,1 C 89 % 93 % 1013,1 hPa 0,0 l/m 0,0 km/h (0 Bft) NW 315 0 min 9,8 C 12,7 C 0,0 km/h (0 Bft)
04.08.2021 04:50 11,6 C 18,4 C 12,8 C 12,6 C 12,6 C 1,0 C 89 % 93 % 1013,1 hPa 0,0 l/m 0,0 km/h (0 Bft) NW 315 0 min 9,8 C 12,6 C 0,0 km/h (0 Bft)
04.08.2021 04:55 11,6 C 18,4 C 12,7 C 12,6 C 12,6 C 1,0 C 89 % 93 % 1012,5 hPa 0,0 l/m 0,0 km/h (0 Bft) NW 315 0 min 9,8 C 12,6 C 0,0 km/h (0 Bft)
04.08.2021 05:00 11,6 C 18,4 C 12,7 C 12,6 C 12,6 C 1,0 C 89 % 93 % 1012,5 hPa 0,0 l/m 0,0 km/h (0 Bft) NW 315 0 min 9,8 C 12,6 C 0,0 km/h (0 Bft)
04.08.2021 05:05 11,7 C 18,4 C 12,8 C 12,6 C 12,6 C 0,9 C 88 % 93 % 1012,5 hPa 0,0 l/m 0,0 km/h (0 Bft) NW 315 0 min 9,8 C 12,6 C 0,0 km/h (0 Bft)
04.08.2021 05:10 11,7 C 18,4 C 12,8 C 12,5 C 12,5 C 0,8 C 89 % 93 % 1012,5 hPa 0,0 l/m 0,0 km/h (0 Bft) NW 315 0 min 9,9 C 12,5 C 0,0 km/h (0 Bft)
04.08.2021 05:15 11,6 C 18,4 C 12,7 C 12,4 C 12,4 C 0,8 C 89 % 93 % 1012,9 hPa 0,0 l/m 0,0 km/h (0 Bft) NW 315 0 min 9,8 C 12,4 C 0,0 km/h (0 Bft)
04.08.2021 05:20 11,6 C 18,4 C 12,7 C 12,4 C 12,4 C 0,8 C 89 % 93 % 1012,9 hPa 0,0 l/m 0,0 km/h (0 Bft) NW 315 0 min 9,8 C 12,4 C 0,0 km/h (0 Bft)
04.08.2021 05:25 11,6 C 18,4 C 12,7 C 12,4 C 12,4 C 0,8 C 89 % 93 % 1012,9 hPa 0,0 l/m 0,0 km/h (0 Bft) NW 315 0 min 9,8 C 12,4 C 0,0 km/h (0 Bft)
04.08.2021 05:30 11,6 C 18,4 C 12,7 C 12,3 C 12,3 C 0,7 C 89 % 93 % 1012,9 hPa 0,0 l/m 0,0 km/h (0 Bft) NW 315 0 min 9,8 C 12,3 C 0,0 km/h (0 Bft)
04.08.2021 05:35 11,5 C 18,3 C 12,7 C 12,3 C 12,3 C 0,8 C 89 % 93 % 1012,9 hPa 0,0 l/m 0,0 km/h (0 Bft) NW 315 0 min 9,8 C 12,3 C 0,0 km/h (0 Bft)
04.08.2021 05:40 11,5 C 18,3 C 12,7 C 12,3 C 12,3 C 0,8 C 89 % 93 % 1012,9 hPa 0,0 l/m 0,0 km/h (0 Bft) NW 315 0 min 9,8 C 12,3 C 0,0 km/h (0 Bft)
04.08.2021 05:45 11,4 C 18,3 C 12,7 C 12,3 C 12,3 C 0,9 C 89 % 93 % 1012,9 hPa 0,0 l/m 0,0 km/h (0 Bft) NW 315 0 min 9,7 C 12,3 C 0,0 km/h (0 Bft)
04.08.2021 05:50 11,4 C 18,3 C 12,7 C 12,3 C 12,3 C 0,9 C 89 % 93 % 1012,9 hPa 0,0 l/m 0,0 km/h (0 Bft) NW 315 0 min 9,7 C 12,3 C 0,0 km/h (0 Bft)
04.08.2021 05:55 11,5 C 18,3 C 12,7 C 12,3 C 12,3 C 0,8 C 89 % 93 % 1013,2 hPa 0,0 l/m 0,0 km/h (0 Bft) NW 315 5 min 9,8 C 12,3 C 0,0 km/h (0 Bft)
04.08.2021 06:00 11,5 C 18,3 C 12,7 C 12,3 C 12,3 C 0,8 C 89 % 93 % 1013,2 hPa 0,0 l/m 0,0 km/h (0 Bft) NW 315 5 min 9,8 C 12,3 C 0,0 km/h (0 Bft)
04.08.2021 06:06 11,5 C 18,3 C 12,7 C 12,4 C 12,4 C 0,9 C 89 % 93 % 1013,2 hPa 0,0 l/m 0,0 km/h (0 Bft) NW 315 6 min 9,8 C 12,4 C 0,0 km/h (0 Bft)
04.08.2021 06:10 11,4 C 18,3 C 12,7 C 12,5 C 12,5 C 1,1 C 89 % 93 % 1013,2 hPa 0,0 l/m 0,0 km/h (0 Bft) NW 315 4 min 9,7 C 12,5 C 0,0 km/h (0 Bft)
04.08.2021 06:15 11,5 C 18,3 C 12,7 C 12,6 C 12,6 C 1,1 C 89 % 93 % 1012,8 hPa 0,0 l/m 0,0 km/h (0 Bft) W-NW 292 5 min 9,8 C 12,6 C 0,0 km/h (0 Bft)
04.08.2021 06:20 11,6 C 18,3 C 12,7 C 12,6 C 12,6 C 1,0 C 89 % 93 % 1012,8 hPa 0,0 l/m 0,0 km/h (0 Bft) W-NW 292 5 min 9,8 C 12,6 C 0,0 km/h (0 Bft)
04.08.2021 06:25 11,6 C 18,3 C 12,8 C 12,8 C 12,8 C 1,2 C 89 % 93 % 1012,8 hPa 0,0 l/m 0,0 km/h (0 Bft) W-NW 292 5 min 9,8 C 12,8 C 0,0 km/h (0 Bft)
04.08.2021 06:30 11,6 C 18,3 C 12,8 C 12,9 C 12,9 C 1,3 C 89 % 93 % 1012,8 hPa 0,0 l/m 0,0 km/h (0 Bft) W-NW 292 5 min 9,8 C 12,9 C 0,0 km/h (0 Bft)
04.08.2021 06:35 11,6 C 18,3 C 12,8 C 12,9 C 12,9 C 1,3 C 89 % 93 % 1013,2 hPa 0,0 l/m 0,0 km/h (0 Bft) W-NW 292 5 min 9,8 C 12,9 C 0,0 km/h (0 Bft)
04.08.2021 06:40 11,7 C 18,3 C 12,8 C 12,9 C 12,9 C 1,2 C 89 % 93 % 1013,2 hPa 0,0 l/m 0,0 km/h (0 Bft) NW 315 0 min 9,9 C 12,9 C 0,0 km/h (0 Bft)
04.08.2021 06:45 11,6 C 18,3 C 12,9 C 12,9 C 12,9 C 1,3 C 89 % 93 % 1013,2 hPa 0,0 l/m 0,0 km/h (0 Bft) NW 315 0 min 9,8 C 12,9 C 0,0 km/h (0 Bft)
04.08.2021 06:50 11,7 C 18,3 C 13,0 C 13,1 C 13,1 C 1,4 C 89 % 93 % 1013,2 hPa 0,0 l/m 0,0 km/h (0 Bft) NW 315 0 min 9,9 C 13,1 C 0,0 km/h (0 Bft)
04.08.2021 06:55 11,9 C 18,3 C 13,1 C 13,3 C 13,3 C 1,4 C 89 % 92 % 1013,1 hPa 0,0 l/m 0,0 km/h (0 Bft) NW 315 0 min 10,1 C 13,3 C 0,0 km/h (0 Bft)
04.08.2021 07:00 11,9 C 18,3 C 13,1 C 13,5 C 13,5 C 1,6 C 89 % 92 % 1013,1 hPa 0,0 l/m 0,0 km/h (0 Bft) NW 315 0 min 10,1 C 13,5 C 0,0 km/h (0 Bft)
04.08.2021 07:05 12,0 C 18,4 C 13,2 C 13,7 C 13,7 C 1,7 C 89 % 92 % 1013,1 hPa 0,0 l/m 0,0 km/h (0 Bft) NW 315 0 min 10,2 C 13,7 C 0,0 km/h (0 Bft)
04.08.2021 07:10 12,1 C 18,4 C 13,3 C 13,8 C 13,8 C 1,7 C 89 % 92 % 1013,1 hPa 0,0 l/m 0,0 km/h (0 Bft) W 270 0 min 10,3 C 13,8 C 0,0 km/h (0 Bft)
04.08.2021 07:15 12,2 C 18,4 C 13,4 C 14,0 C 14,0 C 1,8 C 89 % 92 % 1013,2 hPa 0,0 l/m 0,0 km/h (0 Bft) W 270 0 min 10,4 C 14,0 C 0,0 km/h (0 Bft)
04.08.2021 07:20 12,4 C 18,4 C 13,5 C 14,1 C 14,1 C 1,7 C 89 % 92 % 1013,2 hPa 0,0 l/m 0,0 km/h (0 Bft) W 270 0 min 10,6 C 14,1 C 0,0 km/h (0 Bft)
04.08.2021 07:25 12,5 C 18,4 C 13,6 C 14,3 C 14,3 C 1,8 C 89 % 92 % 1013,2 hPa 0,0 l/m 0,0 km/h (0 Bft) W 270 0 min 10,7 C 14,3 C 0,0 km/h (0 Bft)
04.08.2021 07:30 12,6 C 18,4 C 13,6 C 14,4 C 14,4 C 1,8 C 89 % 92 % 1013,2 hPa 0,0 l/m 0,0 km/h (0 Bft) W 270 0 min 10,8 C 14,4 C 0,0 km/h (0 Bft)
04.08.2021 07:35 12,9 C 18,4 C 13,8 C 14,6 C 14,6 C 1,7 C 89 % 92 % 1013,2 hPa 0,0 l/m 0,0 km/h (0 Bft) W 270 0 min 11,1 C 14,6 C 0,0 km/h (0 Bft)
04.08.2021 07:40 12,9 C 18,4 C 13,9 C 14,7 C 14,7 C 1,8 C 89 % 92 % 1013,2 hPa 0,0 l/m 0,0 km/h (0 Bft) W 270 0 min 11,1 C 14,7 C 0,0 km/h (0 Bft)
04.08.2021 07:45 13,1 C 18,4 C 14,1 C 15,0 C 15,0 C 1,9 C 89 % 92 % 1013,2 hPa 0,0 l/m 0,0 km/h (0 Bft) S 180 0 min 11,3 C 15,0 C 0,0 km/h (0 Bft)
04.08.2021 07:50 13,2 C 18,4 C 14,1 C 15,2 C 15,2 C 2,0 C 89 % 92 % 1013,2 hPa 0,0 l/m 0,0 km/h (0 Bft) S 180 0 min 11,4 C 15,2 C 0,0 km/h (0 Bft)
04.08.2021 07:55 13,4 C 18,4 C 14,3 C 15,4 C 15,4 C 2,0 C 89 % 92 % 1013,6 hPa 0,0 l/m 0,0 km/h (0 Bft) S 180 0 min 11,6 C 15,4 C 0,0 km/h (0 Bft)
04.08.2021 08:00 13,7 C 18,4 C 14,5 C 15,7 C 15,7 C 2,0 C 89 % 92 % 1013,6 hPa 0,0 l/m 0,0 km/h (0 Bft) S 180 0 min 11,9 C 15,7 C 0,0 km/h (0 Bft)
04.08.2021 08:05 13,9 C 18,4 C 14,7 C 16,4 C 16,4 C 2,5 C 89 % 92 % 1013,6 hPa 0,0 l/m 0,0 km/h (0 Bft) S-SO 157 0 min 12,1 C 16,4 C 0,0 km/h (0 Bft)
04.08.2021 08:10 14,0 C 18,5 C 14,8 C 16,6 C 16,6 C 2,6 C 89 % 92 % 1013,6 hPa 0,0 l/m 0,0 km/h (0 Bft) W-SW 247 0 min 12,2 C 16,6 C 0,0 km/h (0 Bft)
04.08.2021 08:15 14,3 C 18,5 C 15,0 C 17,4 C 17,4 C 3,1 C 89 % 92 % 1013,5 hPa 0,0 l/m 0,0 km/h (0 Bft) W-SW 247 0 min 12,5 C 17,4 C 0,0 km/h (0 Bft)
04.08.2021 08:20 14,5 C 18,5 C 15,1 C 18,2 C 18,2 C 3,7 C 89 % 92 % 1013,5 hPa 0,0 l/m 0,0 km/h (0 Bft) NW 315 5 min 12,7 C 18,2 C 0,0 km/h (0 Bft)
04.08.2021 08:25 14,5 C 18,5 C 15,2 C 18,7 C 18,7 C 4,2 C 89 % 93 % 1013,5 hPa 0,0 l/m 0,2 km/h (0 Bft) S-SW 202 5 min 12,7 C 18,7 C 0,0 km/h (0 Bft)
04.08.2021 08:30 14,5 C 18,5 C 15,3 C 18,7 C 18,7 C 4,2 C 89 % 93 % 1013,5 hPa 0,0 l/m 0,3 km/h (0 Bft) W-SW 247 5 min 12,7 C 18,7 C 0,0 km/h (0 Bft)
04.08.2021 08:35 14,5 C 18,5 C 15,4 C 19,0 C 19,0 C 4,5 C 89 % 93 % 1013,5 hPa 0,0 l/m 0,0 km/h (0 Bft) W-SW 247 5 min 12,7 C 19,0 C 0,0 km/h (0 Bft)
04.08.2021 08:40 14,5 C 18,5 C 15,5 C 19,2 C 19,2 C 4,7 C 89 % 93 % 1013,5 hPa 0,0 l/m 0,2 km/h (0 Bft) S-SO 157 5 min 12,7 C 19,2 C 2,3 km/h (1 Bft)
04.08.2021 08:45 14,7 C 18,5 C 15,5 C 19,6 C 19,6 C 4,9 C 90 % 93 % 1013,5 hPa 0,0 l/m 0,2 km/h (0 Bft) S 180 5 min 13,1 C 19,6 C 0,0 km/h (0 Bft)
04.08.2021 08:50 14,7 C 18,5 C 15,6 C 20,0 C 20,0 C 5,3 C 90 % 93 % 1013,5 hPa 0,0 l/m 0,3 km/h (0 Bft) N-NO 22 5 min 13,1 C 20,0 C 4,0 km/h (1 Bft)
04.08.2021 08:55 14,8 C 18,6 C 15,7 C 20,7 C 20,7 C 5,9 C 90 % 93 % 1013,6 hPa 0,0 l/m 0,2 km/h (0 Bft) SW 225 5 min 13,2 C 20,7 C 0,0 km/h (0 Bft)
04.08.2021 09:00 14,8 C 18,5 C 15,7 C 20,6 C 20,6 C 5,8 C 90 % 93 % 1013,6 hPa 0,0 l/m 0,3 km/h (0 Bft) S-SO 157 5 min 13,2 C 20,6 C 4,0 km/h (1 Bft)
04.08.2021 09:05 15,1 C 18,5 C 15,8 C 20,6 C 20,6 C 5,5 C 90 % 93 % 1013,6 hPa 0,0 l/m 0,2 km/h (0 Bft) SW 225 5 min 13,5 C 20,6 C 0,0 km/h (0 Bft)
04.08.2021 09:10 15,1 C 18,5 C 15,9 C 21,2 C 21,2 C 6,1 C 90 % 93 % 1013,6 hPa 0,0 l/m 0,2 km/h (0 Bft) SW 225 5 min 13,5 C 21,2 C 1,8 km/h (1 Bft)
04.08.2021 09:15 14,9 C 18,5 C 15,9 C 21,4 C 21,4 C 6,5 C 90 % 93 % 1013,7 hPa 0,0 l/m 0,5 km/h (0 Bft) S 180 5 min 13,3 C 21,4 C 2,4 km/h (1 Bft)
04.08.2021 09:20 14,8 C 18,5 C 15,8 C 20,9 C 20,9 C 6,1 C 90 % 93 % 1013,7 hPa 0,0 l/m 0,6 km/h (0 Bft) O-SO 112 5 min 13,2 C 20,9 C 0,0 km/h (0 Bft)
04.08.2021 09:25 14,7 C 18,5 C 15,5 C 19,8 C 19,8 C 5,1 C 90 % 93 % 1013,7 hPa 0,0 l/m 0,3 km/h (0 Bft) O-SO 112 5 min 13,1 C 19,8 C 0,0 km/h (0 Bft)
04.08.2021 09:30 14,7 C 18,5 C 15,6 C 19,5 C 19,5 C 4,8 C 90 % 93 % 1013,7 hPa 0,0 l/m 0,2 km/h (0 Bft) S 180 5 min 13,1 C 19,5 C 0,0 km/h (0 Bft)
04.08.2021 09:35 14,7 C 18,5 C 15,7 C 19,0 C 19,0 C 4,3 C 90 % 93 % 1013,9 hPa 0,0 l/m 0,0 km/h (0 Bft) SW 225 5 min 13,1 C 19,0 C 1,8 km/h (1 Bft)
04.08.2021 09:40 14,6 C 18,5 C 15,7 C 19,0 C 19,0 C 4,4 C 89 % 93 % 1013,9 hPa 0,0 l/m 0,3 km/h (0 Bft) SW 225 5 min 12,8 C 19,0 C 0,0 km/h (0 Bft)
04.08.2021 09:45 14,6 C 18,5 C 15,8 C 19,1 C 19,1 C 4,5 C 89 % 93 % 1013,9 hPa 0,0 l/m 0,3 km/h (0 Bft) SW 225 5 min 12,8 C 19,1 C 0,0 km/h (0 Bft)
04.08.2021 09:50 14,7 C 18,5 C 15,9 C 19,4 C 19,4 C 4,7 C 90 % 93 % 1013,9 hPa 0,0 l/m 0,2 km/h (0 Bft) NW 315 5 min 13,1 C 19,4 C 1,6 km/h (1 Bft)
04.08.2021 09:55 14,9 C 18,5 C 16,1 C 20,0 C 20,0 C 5,1 C 90 % 93 % 1013,8 hPa 0,0 l/m 0,0 km/h (0 Bft) W-SW 247 5 min 13,3 C 20,0 C 0,0 km/h (0 Bft)
04.08.2021 10:00 15,1 C 18,5 C 16,1 C 20,2 C 20,2 C 5,1 C 90 % 93 % 1013,8 hPa 0,0 l/m 0,2 km/h (0 Bft) SW 225 5 min 13,5 C 20,2 C 0,0 km/h (0 Bft)
04.08.2021 10:05 15,1 C 18,5 C 16,2 C 20,4 C 20,4 C 5,3 C 90 % 93 % 1013,8 hPa 0,0 l/m 0,2 km/h (0 Bft) W 270 5 min 13,5 C 20,4 C 1,8 km/h (1 Bft)
04.08.2021 10:10 15,1 C 18,5 C 16,2 C 20,4 C 20,4 C 5,3 C 90 % 93 % 1013,8 hPa 0,0 l/m 0,2 km/h (0 Bft) W-SW 247 5 min 13,5 C 20,4 C 0,0 km/h (0 Bft)
04.08.2021 10:15 15,1 C 18,4 C 16,3 C 20,2 C 20,2 C 5,1 C 90 % 93 % 1013,3 hPa 0,0 l/m 0,2 km/h (0 Bft) SW 225 5 min 13,5 C 20,2 C 0,0 km/h (0 Bft)
04.08.2021 10:20 15,0 C 18,5 C 16,2 C 20,1 C 20,1 C 5,1 C 90 % 93 % 1013,3 hPa 0,0 l/m 0,2 km/h (0 Bft) SW 225 5 min 13,4 C 20,1 C 0,0 km/h (0 Bft)
04.08.2021 10:25 15,2 C 18,5 C 16,3 C 20,2 C 20,2 C 5,0 C 90 % 93 % 1013,3 hPa 0,0 l/m 0,0 km/h (0 Bft) SW 225 5 min 13,6 C 20,2 C 0,0 km/h (0 Bft)
04.08.2021 10:30 15,2 C 18,4 C 16,3 C 20,4 C 20,4 C 5,2 C 90 % 93 % 1013,3 hPa 0,0 l/m 0,0 km/h (0 Bft) SW 225 5 min 13,6 C 20,4 C 0,0 km/h (0 Bft)
04.08.2021 10:35 15,3 C 18,4 C 16,6 C 20,9 C 20,9 C 5,6 C 90 % 93 % 1013,9 hPa 0,0 l/m 0,0 km/h (0 Bft) SW 225 5 min 13,7 C 20,9 C 0,0 km/h (0 Bft)
04.08.2021 10:40 15,2 C 18,4 C 16,8 C 21,7 C 21,7 C 6,5 C 90 % 93 % 1013,9 hPa 0,0 l/m 0,2 km/h (0 Bft) SW 225 5 min 13,6 C 21,7 C 0,0 km/h (0 Bft)
04.08.2021 10:45 15,3 C 18,5 C 16,9 C 22,5 C 22,5 C 7,2 C 90 % 93 % 1013,9 hPa 0,0 l/m 0,2 km/h (0 Bft) S-SO 157 5 min 13,7 C 22,5 C 0,0 km/h (0 Bft)
04.08.2021 10:50 15,5 C 18,3 C 16,8 C 22,5 C 22,5 C 7,0 C 89 % 94 % 1013,9 hPa 0,0 l/m 0,3 km/h (0 Bft) SW 225 5 min 13,7 C 22,5 C 4,7 km/h (1 Bft)
04.08.2021 10:55 15,5 C 18,4 C 17,1 C 22,8 C 22,8 C 7,3 C 90 % 94 % 1013,6 hPa 0,0 l/m 0,2 km/h (0 Bft) S-SW 202 5 min 13,9 C 22,8 C 0,0 km/h (0 Bft)
04.08.2021 11:00 15,6 C 18,4 C 17,1 C 22,9 C 22,9 C 7,3 C 90 % 94 % 1013,6 hPa 0,0 l/m 0,0 km/h (0 Bft) SW 225 5 min 14,0 C 22,9 C 0,0 km/h (0 Bft)
04.08.2021 11:05 15,6 C 18,3 C 17,3 C 23,0 C 23,0 C 7,4 C 90 % 94 % 1013,6 hPa 0,0 l/m 0,0 km/h (0 Bft) S 180 5 min 14,0 C 23,0 C 1,9 km/h (1 Bft)
04.08.2021 11:10 15,7 C 18,3 C 17,5 C 23,7 C 23,7 C 8,0 C 90 % 94 % 1013,6 hPa 0,0 l/m 0,0 km/h (0 Bft) S-SW 202 5 min 14,1 C 23,7 C 0,0 km/h (0 Bft)
04.08.2021 11:15 15,8 C 18,3 C 17,5 C 24,2 C 24,2 C 8,4 C 89 % 94 % 1013,3 hPa 0,0 l/m 0,2 km/h (0 Bft) W-SW 247 5 min 14,0 C 24,2 C 0,0 km/h (0 Bft)
04.08.2021 11:20 15,9 C 18,3 C 17,4 C 23,6 C 23,6 C 7,7 C 89 % 94 % 1013,3 hPa 0,0 l/m 0,2 km/h (0 Bft) SW 225 5 min 14,1 C 23,6 C 0,0 km/h (0 Bft)
04.08.2021 11:25 15,6 C 18,3 C 17,1 C 22,2 C 22,2 C 6,6 C 89 % 94 % 1013,3 hPa 0,0 l/m 0,2 km/h (0 Bft) S 180 5 min 13,8 C 22,2 C 0,0 km/h (0 Bft)
04.08.2021 11:30 15,5 C 18,3 C 16,9 C 21,5 C 21,5 C 6,0 C 89 % 94 % 1013,3 hPa 0,0 l/m 0,3 km/h (0 Bft) S 180 5 min 13,7 C 21,5 C 4,0 km/h (1 Bft)
04.08.2021 11:35 15,5 C 18,3 C 16,9 C 20,2 C 20,2 C 4,7 C 89 % 94 % 1013,5 hPa 0,0 l/m 0,3 km/h (0 Bft) W 270 5 min 13,7 C 20,2 C 0,0 km/h (0 Bft)
04.08.2021 11:40 15,5 C 18,4 C 16,8 C 19,3 C 19,3 C 3,8 C 89 % 94 % 1013,5 hPa 0,0 l/m 0,2 km/h (0 Bft) W 270 5 min 13,7 C 19,3 C 0,0 km/h (0 Bft)
04.08.2021 11:45 15,5 C 18,5 C 16,8 C 19,0 C 19,0 C 3,5 C 89 % 94 % 1013,5 hPa 0,0 l/m 0,0 km/h (0 Bft) W-SW 247 5 min 13,7 C 19,0 C 0,0 km/h (0 Bft)
04.08.2021 11:50 15,5 C 18,5 C 16,8 C 19,3 C 19,3 C 3,8 C 89 % 94 % 1013,5 hPa 0,0 l/m 0,0 km/h (0 Bft) S 180 5 min 13,7 C 19,3 C 0,0 km/h (0 Bft)
04.08.2021 11:55 15,6 C 18,5 C 16,9 C 19,8 C 19,8 C 4,2 C 89 % 94 % 1013,4 hPa 0,0 l/m 0,0 km/h (0 Bft) S 180 5 min 13,8 C 19,8 C 0,0 km/h (0 Bft)
04.08.2021 12:00 15,7 C 18,6 C 17,0 C 20,3 C 20,3 C 4,6 C 89 % 94 % 1013,4 hPa 0,0 l/m 0,0 km/h (0 Bft) O-SO 112 5 min 13,9 C 20,3 C 0,0 km/h (0 Bft)
04.08.2021 12:05 15,6 C 18,6 C 17,3 C 20,5 C 20,5 C 4,9 C 89 % 94 % 1013,4 hPa 0,0 l/m 0,5 km/h (0 Bft) N-NO 22 5 min 13,8 C 20,5 C 0,0 km/h (0 Bft)
04.08.2021 12:10 15,8 C 18,6 C 17,3 C 20,7 C 20,7 C 4,9 C 89 % 94 % 1013,4 hPa 0,0 l/m 0,5 km/h (0 Bft) N-NO 22 5 min 14,0 C 20,7 C 0,0 km/h (0 Bft)
04.08.2021 12:15 16,0 C 18,5 C 17,5 C 21,5 C 21,5 C 5,5 C 90 % 94 % 1013,4 hPa 0,0 l/m 0,0 km/h (0 Bft) O-NO 67 5 min 14,4 C 21,5 C 0,0 km/h (0 Bft)
04.08.2021 12:20 16,1 C 18,4 C 17,7 C 21,9 C 21,9 C 5,8 C 90 % 94 % 1013,4 hPa 0,0 l/m 0,0 km/h (0 Bft) O-NO 67 5 min 14,5 C 21,9 C 0,0 km/h (0 Bft)
04.08.2021 12:25 16,3 C 18,4 C 17,9 C 22,6 C 22,6 C 6,3 C 90 % 94 % 1013,4 hPa 0,0 l/m 0,0 km/h (0 Bft) W 270 5 min 14,7 C 22,6 C 0,0 km/h (0 Bft)
04.08.2021 12:30 16,4 C 18,4 C 17,9 C 22,9 C 22,9 C 6,5 C 90 % 94 % 1013,4 hPa 0,0 l/m 0,0 km/h (0 Bft) W-SW 247 5 min 14,8 C 22,9 C 0,0 km/h (0 Bft)
04.08.2021 12:35 16,5 C 18,4 C 18,1 C 23,3 C 23,3 C 6,8 C 90 % 94 % 1013,3 hPa 0,0 l/m 0,0 km/h (0 Bft) S 180 5 min 14,9 C 23,3 C 0,0 km/h (0 Bft)
04.08.2021 12:40 16,7 C 18,4 C 18,3 C 24,4 C 24,4 C 7,7 C 90 % 94 % 1013,3 hPa 0,0 l/m 0,0 km/h (0 Bft) SW 225 5 min 15,0 C 24,4 C 0,0 km/h (0 Bft)
04.08.2021 12:45 17,1 C 18,3 C 18,5 C 25,3 C 25,3 C 8,2 C 89 % 94 % 1013,3 hPa 0,0 l/m 0,0 km/h (0 Bft) O-NO 67 5 min 15,3 C 25,3 C 0,0 km/h (0 Bft)
04.08.2021 12:50 17,3 C 18,3 C 18,7 C 26,5 C 26,5 C 9,2 C 89 % 93 % 1013,3 hPa 0,0 l/m 0,0 km/h (0 Bft) SO 135 5 min 15,5 C 26,5 C 0,0 km/h (0 Bft)
04.08.2021 12:55 17,7 C 18,3 C 18,8 C 28,2 C 28,2 C 10,5 C 90 % 93 % 1013,2 hPa 0,0 l/m 0,2 km/h (0 Bft) SO 135 5 min 16,0 C 28,2 C 0,0 km/h (0 Bft)
04.08.2021 13:00 18,0 C 18,3 C 18,9 C 29,3 C 29,3 C 11,3 C 90 % 94 % 1013,2 hPa 0,0 l/m 0,2 km/h (0 Bft) SW 225 5 min 16,3 C 29,3 C 0,0 km/h (0 Bft)
04.08.2021 13:05 18,5 C 18,3 C 18,9 C 28,9 C 28,9 C 10,4 C 89 % 94 % 1013,2 hPa 0,0 l/m 0,2 km/h (0 Bft) NW 315 5 min 16,7 C 28,9 C 2,9 km/h (1 Bft)
04.08.2021 13:10 18,5 C 18,2 C 18,8 C 28,0 C 28,0 C 9,5 C 89 % 93 % 1013,2 hPa 0,0 l/m 0,3 km/h (0 Bft) S 180 5 min 16,7 C 28,0 C 0,0 km/h (0 Bft)
04.08.2021 13:15 18,3 C 18,3 C 18,7 C 26,2 C 26,2 C 7,9 C 88 % 93 % 1013,1 hPa 0,0 l/m 0,3 km/h (0 Bft) S-SW 202 5 min 16,3 C 26,2 C 0,0 km/h (0 Bft)
04.08.2021 13:20 18,2 C 18,2 C 18,7 C 25,3 C 25,3 C 7,1 C 88 % 93 % 1013,1 hPa 0,0 l/m 0,0 km/h (0 Bft) W 270 5 min 16,2 C 25,3 C 3,5 km/h (1 Bft)
04.08.2021 13:25 17,9 C 18,3 C 18,7 C 24,2 C 24,2 C 6,3 C 87 % 93 % 1013,1 hPa 0,0 l/m 0,5 km/h (0 Bft) SW 225 5 min 15,7 C 24,2 C 0,0 km/h (0 Bft)
04.08.2021 13:30 17,9 C 18,3 C 18,7 C 23,7 C 23,7 C 5,8 C 87 % 93 % 1013,1 hPa 0,0 l/m 0,8 km/h (0 Bft) W 270 5 min 15,7 C 23,7 C 4,8 km/h (1 Bft)
04.08.2021 13:35 17,6 C 18,3 C 18,6 C 22,1 C 22,1 C 4,5 C 87 % 93 % 1013,1 hPa 0,0 l/m 1,4 km/h (1 Bft) W-SW 247 5 min 15,4 C 22,1 C 0,0 km/h (0 Bft)
04.08.2021 13:40 17,5 C 18,4 C 18,3 C 20,6 C 20,6 C 3,1 C 87 % 93 % 1013,1 hPa 0,0 l/m 1,3 km/h (1 Bft) NO 45 0 min 15,3 C 20,6 C 7,7 km/h (2 Bft)
04.08.2021 13:45 17,5 C 18,4 C 18,1 C 19,4 C 19,4 C 1,9 C 87 % 93 % 1013,1 hPa 0,0 l/m 0,3 km/h (0 Bft) W 270 0 min 15,3 C 19,4 C 0,0 km/h (0 Bft)
04.08.2021 13:50 17,5 C 18,4 C 18,2 C 19,2 C 19,2 C 1,7 C 86 % 93 % 1013,1 hPa 0,0 l/m 0,2 km/h (0 Bft) NO 45 0 min 15,1 C 19,2 C 0,0 km/h (0 Bft)
04.08.2021 13:55 17,7 C 18,4 C 18,2 C 19,4 C 19,4 C 1,7 C 87 % 93 % 1013,0 hPa 0,0 l/m 0,3 km/h (0 Bft) W-SW 247 0 min 15,5 C 19,4 C 0,0 km/h (0 Bft)
04.08.2021 14:00 17,9 C 18,4 C 18,3 C 19,8 C 19,8 C 1,9 C 87 % 93 % 1013,0 hPa 0,0 l/m 0,5 km/h (0 Bft) NW 315 0 min 15,7 C 19,8 C 0,0 km/h (0 Bft)
04.08.2021 14:05 18,0 C 18,3 C 18,3 C 20,2 C 20,2 C 2,2 C 86 % 93 % 1013,0 hPa 0,0 l/m 0,2 km/h (0 Bft) O-NO 67 0 min 15,6 C 20,2 C 0,0 km/h (0 Bft)
04.08.2021 14:10 18,3 C 18,3 C 18,1 C 20,3 C 20,3 C 2,0 C 86 % 93 % 1013,0 hPa 0,0 l/m 0,0 km/h (0 Bft) W 270 0 min 15,9 C 20,3 C 0,0 km/h (0 Bft)
04.08.2021 14:15 18,4 C 18,3 C 18,1 C 20,5 C 20,5 C 2,1 C 86 % 93 % 1012,8 hPa 0,0 l/m 0,0 km/h (0 Bft) NO 45 0 min 16,0 C 20,5 C 0,0 km/h (0 Bft)
04.08.2021 14:20 18,7 C 18,4 C 18,0 C 20,5 C 20,5 C 1,8 C 86 % 93 % 1012,8 hPa 0,0 l/m 0,0 km/h (0 Bft) NO 45 0 min 16,3 C 20,5 C 0,0 km/h (0 Bft)
04.08.2021 14:25 18,7 C 18,5 C 17,9 C 20,4 C 20,4 C 1,7 C 85 % 93 % 1012,8 hPa 0,0 l/m 0,0 km/h (0 Bft) SO 135 0 min 16,1 C 20,4 C 0,0 km/h (0 Bft)
04.08.2021 14:30 18,8 C 18,6 C 17,9 C 19,8 C 19,8 C 1,0 C 84 % 93 % 1012,8 hPa 0,0 l/m 0,0 km/h (0 Bft) NO 45 0 min 16,0 C 19,8 C 0,0 km/h (0 Bft)
04.08.2021 14:35 18,7 C 18,6 C 17,7 C 18,6 C 18,5 C 0,0 C 84 % 93 % 1012,9 hPa 0,0 l/m 0,2 km/h (0 Bft) O 90 0 min 15,9 C 18,5 C 0,0 km/h (0 Bft)
04.08.2021 14:40 18,7 C 18,6 C 17,6 C 18,5 C 18,1 C 0,0 C 84 % 93 % 1012,9 hPa 0,0 l/m 0,2 km/h (0 Bft) O 90 0 min 15,9 C 18,1 C 0,0 km/h (0 Bft)
04.08.2021 14:45 18,7 C 18,7 C 17,7 C 18,5 C 18,0 C 0,0 C 84 % 93 % 1012,9 hPa 0,0 l/m 0,0 km/h (0 Bft) O-NO 67 0 min 15,9 C 18,0 C 0,0 km/h (0 Bft)
04.08.2021 14:50 18,7 C 18,8 C 17,7 C 18,6 C 18,3 C 0,0 C 84 % 93 % 1012,9 hPa 0,0 l/m 0,8 km/h (0 Bft) O-NO 67 0 min 15,9 C 18,3 C 3,9 km/h (1 Bft)
04.08.2021 14:55 18,8 C 18,6 C 18,5 C 20,5 C 20,5 C 1,7 C 84 % 93 % 1012,4 hPa 0,0 l/m 2,6 km/h (1 Bft) O-NO 67 0 min 16,0 C 20,5 C 1,9 km/h (1 Bft)
04.08.2021 15:00 19,1 C 18,6 C 18,8 C 22,6 C 22,6 C 3,5 C 83 % 93 % 1012,4 hPa 0,0 l/m 3,7 km/h (1 Bft) O-NO 67 5 min 16,1 C 22,6 C 4,5 km/h (1 Bft)
04.08.2021 15:05 19,2 C 18,6 C 19,0 C 24,3 C 24,3 C 5,1 C 81 % 91 % 1012,4 hPa 0,0 l/m 4,0 km/h (1 Bft) O-NO 67 5 min 15,9 C 24,3 C 4,5 km/h (1 Bft)
04.08.2021 15:10 19,3 C 18,5 C 19,1 C 25,2 C 25,2 C 5,9 C 81 % 92 % 1012,4 hPa 0,0 l/m 3,2 km/h (1 Bft) NO 45 5 min 16,0 C 25,2 C 3,9 km/h (1 Bft)
04.08.2021 15:15 19,6 C 18,6 C 19,3 C 26,2 C 26,2 C 6,6 C 80 % 91 % 1012,4 hPa 0,0 l/m 2,9 km/h (1 Bft) NO 45 5 min 16,1 C 26,2 C 3,7 km/h (1 Bft)
04.08.2021 15:20 19,7 C 18,6 C 19,2 C 25,7 C 25,7 C 6,0 C 79 % 91 % 1012,4 hPa 0,0 l/m 3,1 km/h (1 Bft) NO 45 5 min 16,0 C 25,7 C 5,3 km/h (1 Bft)
04.08.2021 15:25 19,7 C 18,5 C 19,1 C 24,9 C 24,9 C 5,2 C 79 % 91 % 1012,4 hPa 0,0 l/m 2,1 km/h (1 Bft) NO 45 5 min 16,0 C 24,9 C 0,0 km/h (0 Bft)
04.08.2021 15:30 19,9 C 18,6 C 19,3 C 24,8 C 24,8 C 4,9 C 79 % 91 % 1012,4 hPa 0,0 l/m 1,1 km/h (1 Bft) NO 45 5 min 16,1 C 24,8 C 0,0 km/h (0 Bft)
04.08.2021 15:35 20,0 C 18,5 C 19,4 C 24,8 C 24,8 C 4,8 C 78 % 91 % 1012,3 hPa 0,0 l/m 0,3 km/h (0 Bft) S 180 5 min 16,0 C 24,8 C 0,0 km/h (0 Bft)
04.08.2021 15:40 20,2 C 18,6 C 19,4 C 24,8 C 24,8 C 4,6 C 77 % 91 % 1012,3 hPa 0,0 l/m 0,6 km/h (0 Bft) NO 45 5 min 16,0 C 24,8 C 3,2 km/h (1 Bft)
04.08.2021 15:45 20,1 C 18,6 C 19,4 C 23,8 C 23,8 C 3,7 C 77 % 91 % 1012,3 hPa 0,0 l/m 1,6 km/h (1 Bft) N-NW 337 5 min 15,9 C 23,8 C 0,0 km/h (0 Bft)
04.08.2021 15:50 20,2 C 18,5 C 19,3 C 23,7 C 23,7 C 3,5 C 77 % 91 % 1012,3 hPa 0,0 l/m 1,1 km/h (1 Bft) O 90 5 min 16,0 C 23,7 C 0,0 km/h (0 Bft)
04.08.2021 15:55 20,4 C 18,5 C 19,3 C 23,6 C 23,6 C 3,2 C 77 % 91 % 1012,3 hPa 0,0 l/m 0,0 km/h (0 Bft) S 180 0 min 16,2 C 23,6 C 0,0 km/h (0 Bft)
04.08.2021 16:00 20,4 C 18,5 C 19,2 C 23,3 C 23,3 C 2,9 C 77 % 91 % 1012,3 hPa 0,0 l/m 0,0 km/h (0 Bft) SW 225 0 min 16,2 C 23,3 C 0,0 km/h (0 Bft)
04.08.2021 16:05 20,6 C 18,5 C 19,1 C 23,0 C 23,0 C 2,4 C 77 % 91 % 1012,3 hPa 0,0 l/m 0,0 km/h (0 Bft) SW 225 0 min 16,4 C 23,0 C 0,0 km/h (0 Bft)
04.08.2021 16:10 20,7 C 18,5 C 19,1 C 22,8 C 22,8 C 2,1 C 77 % 91 % 1012,3 hPa 0,0 l/m 0,0 km/h (0 Bft) SW 225 0 min 16,5 C 22,8 C 0,0 km/h (0 Bft)
04.08.2021 16:15 20,7 C 18,6 C 19,1 C 22,5 C 22,5 C 1,8 C 78 % 91 % 1012,2 hPa 0,0 l/m 0,0 km/h (0 Bft) SW 225 0 min 16,7 C 22,5 C 0,0 km/h (0 Bft)
04.08.2021 16:20 20,7 C 18,5 C 19,1 C 22,5 C 22,5 C 1,8 C 78 % 91 % 1012,2 hPa 0,0 l/m 0,0 km/h (0 Bft) SW 225 0 min 16,7 C 22,5 C 0,0 km/h (0 Bft)
04.08.2021 16:25 20,7 C 18,6 C 18,9 C 22,4 C 22,4 C 1,7 C 77 % 91 % 1012,2 hPa 0,0 l/m 0,0 km/h (0 Bft) SW 225 0 min 16,5 C 22,4 C 0,0 km/h (0 Bft)
04.08.2021 16:30 20,7 C 18,6 C 18,9 C 22,2 C 22,2 C 1,5 C 76 % 91 % 1012,2 hPa 0,0 l/m 0,0 km/h (0 Bft) SW 225 0 min 16,3 C 22,2 C 0,0 km/h (0 Bft)
04.08.2021 16:35 20,5 C 18,6 C 18,9 C 22,1 C 22,1 C 1,6 C 75 % 91 % 1012,0 hPa 0,0 l/m 0,0 km/h (0 Bft) NO 45 0 min 15,9 C 22,1 C 0,0 km/h (0 Bft)
04.08.2021 16:40 20,4 C 18,6 C 18,9 C 22,0 C 22,0 C 1,6 C 75 % 90 % 1012,0 hPa 0,0 l/m 0,0 km/h (0 Bft) NO 45 0 min 15,8 C 22,0 C 0,0 km/h (0 Bft)
04.08.2021 16:45 20,4 C 18,6 C 18,9 C 22,1 C 22,1 C 1,7 C 75 % 90 % 1012,0 hPa 0,0 l/m 0,0 km/h (0 Bft) NO 45 0 min 15,8 C 22,1 C 0,0 km/h (0 Bft)
04.08.2021 16:50 20,4 C 18,6 C 19,0 C 22,2 C 22,2 C 1,8 C 74 % 89 % 1012,0 hPa 0,0 l/m 0,0 km/h (0 Bft) NO 45 0 min 15,6 C 22,2 C 0,0 km/h (0 Bft)
04.08.2021 16:55 20,5 C 18,6 C 19,0 C 22,4 C 22,4 C 1,9 C 74 % 90 % 1012,4 hPa 0,0 l/m 0,0 km/h (0 Bft) NO 45 0 min 15,7 C 22,4 C 0,0 km/h (0 Bft)
04.08.2021 17:00 20,7 C 18,6 C 19,1 C 22,5 C 22,5 C 1,8 C 75 % 90 % 1012,4 hPa 0,0 l/m 0,0 km/h (0 Bft) NO 45 0 min 16,1 C 22,5 C 0,0 km/h (0 Bft)
04.08.2021 17:05 20,6 C 18,6 C 19,1 C 22,5 C 22,5 C 1,9 C 75 % 90 % 1012,4 hPa 0,0 l/m 0,0 km/h (0 Bft) NO 45 0 min 16,0 C 22,5 C 0,0 km/h (0 Bft)
04.08.2021 17:10 20,7 C 18,6 C 19,1 C 22,5 C 22,5 C 1,8 C 75 % 90 % 1012,4 hPa 0,0 l/m 0,0 km/h (0 Bft) NO 45 0 min 16,1 C 22,5 C 0,0 km/h (0 Bft)
04.08.2021 17:15 20,7 C 18,6 C 19,3 C 22,8 C 22,8 C 2,1 C 75 % 89 % 1012,3 hPa 0,0 l/m 0,0 km/h (0 Bft) NO 45 0 min 16,1 C 22,8 C 0,0 km/h (0 Bft)
04.08.2021 17:20 20,8 C 18,6 C 19,4 C 23,1 C 23,1 C 2,3 C 74 % 89 % 1012,3 hPa 0,0 l/m 0,0 km/h (0 Bft) O-SO 112 0 min 16,0 C 23,1 C 0,0 km/h (0 Bft)
04.08.2021 17:25 20,9 C 18,7 C 19,5 C 23,4 C 23,4 C 2,5 C 73 % 88 % 1012,3 hPa 0,0 l/m 0,6 km/h (0 Bft) NO 45 0 min 15,9 C 23,4 C 4,3 km/h (1 Bft)
04.08.2021 17:30 20,8 C 18,6 C 19,7 C 23,4 C 23,4 C 2,6 C 71 % 86 % 1012,3 hPa 0,0 l/m 1,3 km/h (1 Bft) NO 45 0 min 15,3 C 23,4 C 3,4 km/h (1 Bft)
04.08.2021 17:35 20,7 C 18,6 C 19,8 C 23,4 C 23,4 C 2,7 C 71 % 87 % 1011,9 hPa 0,0 l/m 2,3 km/h (1 Bft) N-NO 22 0 min 15,2 C 23,4 C 0,0 km/h (0 Bft)
04.08.2021 17:40 20,8 C 18,6 C 19,7 C 23,8 C 23,8 C 3,0 C 71 % 87 % 1011,9 hPa 0,0 l/m 1,1 km/h (1 Bft) O-NO 67 0 min 15,3 C 23,8 C 0,0 km/h (0 Bft)
04.08.2021 17:45 20,9 C 18,5 C 19,9 C 23,9 C 23,9 C 3,0 C 71 % 86 % 1011,9 hPa 0,0 l/m 0,0 km/h (0 Bft) N-NO 22 0 min 15,4 C 23,9 C 0,0 km/h (0 Bft)
04.08.2021 17:50 21,0 C 18,6 C 20,0 C 24,2 C 24,2 C 3,2 C 70 % 86 % 1011,9 hPa 0,0 l/m 0,3 km/h (0 Bft) NO 45 0 min 15,3 C 24,2 C 3,7 km/h (1 Bft)
04.08.2021 17:55 21,2 C 18,6 C 19,9 C 24,0 C 24,0 C 2,8 C 71 % 85 % 1011,8 hPa 0,0 l/m 0,3 km/h (0 Bft) O-NO 67 0 min 15,7 C 24,0 C 0,0 km/h (0 Bft)
04.08.2021 18:00 21,2 C 18,5 C 19,7 C 23,6 C 23,6 C 2,4 C 70 % 85 % 1011,8 hPa 0,0 l/m 0,2 km/h (0 Bft) NO 45 0 min 15,5 C 23,6 C 0,0 km/h (0 Bft)
04.08.2021 18:05 21,1 C 18,5 C 19,7 C 23,4 C 23,4 C 2,3 C 70 % 85 % 1011,8 hPa 0,0 l/m 0,0 km/h (0 Bft) NO 45 0 min 15,4 C 23,4 C 0,0 km/h (0 Bft)
04.08.2021 18:10 21,1 C 18,5 C 19,7 C 23,4 C 23,4 C 2,3 C 70 % 84 % 1011,8 hPa 0,0 l/m 0,0 km/h (0 Bft) NO 45 0 min 15,4 C 23,4 C 0,0 km/h (0 Bft)
04.08.2021 18:15 21,1 C 18,5 C 19,8 C 23,4 C 23,4 C 2,3 C 70 % 84 % 1011,8 hPa 0,0 l/m 0,0 km/h (0 Bft) O-NO 67 0 min 15,4 C 23,4 C 0,0 km/h (0 Bft)
04.08.2021 18:20 21,1 C 18,6 C 19,8 C 23,5 C 23,5 C 2,4 C 69 % 83 % 1011,8 hPa 0,0 l/m 0,3 km/h (0 Bft) O-NO 67 0 min 15,2 C 23,5 C 0,0 km/h (0 Bft)
04.08.2021 18:25 21,1 C 18,5 C 19,8 C 23,3 C 23,3 C 2,2 C 69 % 83 % 1011,8 hPa 0,0 l/m 1,1 km/h (1 Bft) W 270 0 min 15,2 C 23,3 C 0,0 km/h (0 Bft)
04.08.2021 18:30 21,2 C 18,5 C 19,8 C 23,2 C 23,2 C 2,0 C 71 % 83 % 1011,8 hPa 0,0 l/m 0,8 km/h (0 Bft) NO 45 0 min 15,7 C 23,2 C 0,0 km/h (0 Bft)
04.08.2021 18:35 21,3 C 18,6 C 19,8 C 23,0 C 23,0 C 1,7 C 70 % 83 % 1011,6 hPa 0,0 l/m 0,0 km/h (0 Bft) NO 45 0 min 15,6 C 23,0 C 0,0 km/h (0 Bft)
04.08.2021 18:40 21,3 C 18,6 C 19,8 C 22,9 C 22,9 C 1,6 C 70 % 83 % 1011,6 hPa 0,0 l/m 0,2 km/h (0 Bft) NO 45 0 min 15,6 C 22,9 C 0,0 km/h (0 Bft)
04.08.2021 18:45 21,1 C 18,6 C 19,7 C 22,5 C 22,5 C 1,4 C 69 % 83 % 1011,6 hPa 0,0 l/m 0,6 km/h (0 Bft) N-NO 22 0 min 15,2 C 22,5 C 3,5 km/h (1 Bft)
04.08.2021 18:50 21,1 C 18,6 C 19,5 C 22,2 C 22,2 C 1,1 C 69 % 83 % 1011,6 hPa 0,0 l/m 1,0 km/h (0 Bft) SW 225 0 min 15,2 C 22,2 C 0,0 km/h (0 Bft)
04.08.2021 18:55 21,1 C 18,6 C 19,5 C 21,9 C 21,9 C 0,8 C 69 % 83 % 1011,7 hPa 0,0 l/m 0,6 km/h (0 Bft) SW 225 0 min 15,2 C 21,9 C 0,0 km/h (0 Bft)
04.08.2021 19:00 21,0 C 18,6 C 19,4 C 21,7 C 21,7 C 0,7 C 71 % 83 % 1011,7 hPa 0,0 l/m 0,0 km/h (0 Bft) SW 225 0 min 15,5 C 21,7 C 0,0 km/h (0 Bft)
04.08.2021 19:05 20,9 C 18,5 C 19,3 C 21,7 C 21,7 C 0,8 C 70 % 84 % 1011,7 hPa 0,0 l/m 0,3 km/h (0 Bft) O 90 0 min 15,2 C 21,7 C 0,0 km/h (0 Bft)
04.08.2021 19:10 20,8 C 18,6 C 19,3 C 21,8 C 21,8 C 1,0 C 70 % 83 % 1011,7 hPa 0,0 l/m 1,0 km/h (0 Bft) O-NO 67 0 min 15,1 C 21,8 C 4,2 km/h (1 Bft)
04.08.2021 19:15 20,8 C 18,6 C 19,4 C 21,7 C 21,7 C 0,9 C 71 % 83 % 1011,6 hPa 0,0 l/m 1,0 km/h (0 Bft) NO 45 0 min 15,3 C 21,7 C 1,8 km/h (1 Bft)
04.08.2021 19:20 20,8 C 18,6 C 19,3 C 21,7 C 21,7 C 0,9 C 70 % 83 % 1011,6 hPa 0,0 l/m 1,0 km/h (0 Bft) O-NO 67 0 min 15,1 C 21,7 C 2,1 km/h (1 Bft)
04.08.2021 19:25 20,7 C 18,6 C 19,1 C 21,5 C 21,5 C 0,8 C 70 % 84 % 1011,6 hPa 0,0 l/m 0,6 km/h (0 Bft) NO 45 0 min 15,0 C 21,5 C 0,0 km/h (0 Bft)
04.08.2021 19:30 20,7 C 18,6 C 19,1 C 21,2 C 21,2 C 0,5 C 70 % 84 % 1011,6 hPa 0,0 l/m 0,2 km/h (0 Bft) NO 45 0 min 15,0 C 21,2 C 0,0 km/h (0 Bft)
04.08.2021 19:35 20,6 C 18,6 C 19,0 C 21,1 C 21,1 C 0,5 C 71 % 84 % 1011,6 hPa 0,0 l/m 0,0 km/h (0 Bft) O-NO 67 0 min 15,2 C 21,1 C 1,6 km/h (1 Bft)
04.08.2021 19:40 20,4 C 18,6 C 18,9 C 20,8 C 20,8 C 0,4 C 71 % 85 % 1011,6 hPa 0,0 l/m 0,3 km/h (0 Bft) O 90 0 min 15,0 C 20,8 C 1,8 km/h (1 Bft)
04.08.2021 19:45 20,3 C 18,7 C 18,7 C 20,4 C 20,4 C 0,1 C 72 % 86 % 1011,6 hPa 0,0 l/m 0,3 km/h (0 Bft) NO 45 0 min 15,1 C 20,4 C 0,0 km/h (0 Bft)
04.08.2021 19:50 20,3 C 18,6 C 18,6 C 20,3 C 20,2 C 0,0 C 73 % 86 % 1011,6 hPa 0,0 l/m 0,0 km/h (0 Bft) O-NO 67 0 min 15,3 C 20,2 C 0,0 km/h (0 Bft)
04.08.2021 19:55 20,1 C 18,7 C 18,5 C 20,0 C 19,9 C 0,0 C 73 % 86 % 1011,6 hPa 0,0 l/m 0,0 km/h (0 Bft) O-NO 67 0 min 15,1 C 19,9 C 0,0 km/h (0 Bft)
04.08.2021 20:00 20,1 C 18,7 C 18,3 C 20,0 C 19,7 C 0,0 C 74 % 86 % 1011,6 hPa 0,0 l/m 0,0 km/h (0 Bft) O-NO 67 0 min 15,3 C 19,7 C 0,0 km/h (0 Bft)
04.08.2021 20:05 20,0 C 18,7 C 18,3 C 19,8 C 19,4 C 0,0 C 74 % 87 % 1011,6 hPa 0,0 l/m 0,0 km/h (0 Bft) O-NO 67 0 min 15,2 C 19,4 C 0,0 km/h (0 Bft)
04.08.2021 20:10 19,9 C 18,7 C 18,1 C 19,6 C 19,1 C 0,0 C 74 % 87 % 1011,6 hPa 0,0 l/m 0,0 km/h (0 Bft) O-NO 67 0 min 15,1 C 19,1 C 0,0 km/h (0 Bft)
04.08.2021 20:15 19,5 C 18,7 C 17,9 C 19,3 C 18,8 C 0,0 C 74 % 87 % 1011,7 hPa 0,0 l/m 0,0 km/h (0 Bft) O-NO 67 0 min 14,7 C 18,8 C 0,0 km/h (0 Bft)
04.08.2021 20:20 19,5 C 18,7 C 17,8 C 19,2 C 18,6 C 0,0 C 75 % 87 % 1011,7 hPa 0,0 l/m 0,0 km/h (0 Bft) O-NO 67 0 min 14,9 C 18,6 C 0,0 km/h (0 Bft)
04.08.2021 20:25 19,3 C 18,8 C 17,7 C 19,0 C 18,3 C 0,0 C 75 % 87 % 1011,7 hPa 0,0 l/m 0,0 km/h (0 Bft) O-NO 67 0 min 14,8 C 18,3 C 0,0 km/h (0 Bft)
04.08.2021 20:30 19,1 C 18,8 C 17,5 C 18,8 C 18,1 C 0,0 C 75 % 88 % 1011,7 hPa 0,0 l/m 0,0 km/h (0 Bft) O-NO 67 0 min 14,6 C 18,1 C 0,0 km/h (0 Bft)
04.08.2021 20:35 18,8 C 19,0 C 17,3 C 18,4 C 17,7 C 0,0 C 76 % 88 % 1011,8 hPa 0,0 l/m 0,0 km/h (0 Bft) O-NO 67 0 min 14,5 C 17,7 C 0,0 km/h (0 Bft)
04.08.2021 20:40 18,7 C 19,0 C 17,3 C 18,3 C 17,5 C 0,0 C 77 % 88 % 1011,8 hPa 0,0 l/m 0,0 km/h (0 Bft) O-NO 67 0 min 14,6 C 17,5 C 0,0 km/h (0 Bft)
04.08.2021 20:45 18,5 C 19,0 C 17,1 C 18,1 C 17,3 C 0,0 C 78 % 88 % 1011,8 hPa 0,0 l/m 0,0 km/h (0 Bft) O-NO 67 0 min 14,6 C 17,3 C 0,0 km/h (0 Bft)
04.08.2021 20:50 18,4 C 19,1 C 17,0 C 18,0 C 17,1 C 0,0 C 78 % 89 % 1011,8 hPa 0,0 l/m 0,0 km/h (0 Bft) O-NO 67 0 min 14,5 C 17,1 C 0,0 km/h (0 Bft)
04.08.2021 20:55 18,3 C 19,0 C 16,9 C 17,8 C 16,8 C 0,0 C 78 % 89 % 1012,1 hPa 0,0 l/m 0,0 km/h (0 Bft) O-NO 67 0 min 14,4 C 16,8 C 0,0 km/h (0 Bft)
04.08.2021 21:00 18,0 C 19,0 C 16,8 C 17,5 C 16,6 C 0,0 C 79 % 89 % 1012,1 hPa 0,0 l/m 0,0 km/h (0 Bft) O-NO 67 0 min 14,3 C 16,6 C 0,0 km/h (0 Bft)
04.08.2021 21:05 17,9 C 19,1 C 16,7 C 17,4 C 16,5 C 0,0 C 79 % 89 % 1012,1 hPa 0,0 l/m 0,0 km/h (0 Bft) O-NO 67 0 min 14,2 C 16,5 C 0,0 km/h (0 Bft)
04.08.2021 21:10 17,9 C 19,0 C 16,6 C 17,4 C 16,4 C 0,0 C 79 % 89 % 1012,1 hPa 0,0 l/m 0,0 km/h (0 Bft) O-NO 67 0 min 14,2 C 16,4 C 0,0 km/h (0 Bft)
04.08.2021 21:15 17,6 C 19,0 C 16,6 C 17,2 C 16,3 C 0,0 C 80 % 89 % 1011,7 hPa 0,0 l/m 0,0 km/h (0 Bft) O-NO 67 0 min 14,1 C 16,3 C 0,0 km/h (0 Bft)
04.08.2021 21:20 17,6 C 19,1 C 16,4 C 17,1 C 16,2 C 0,0 C 80 % 89 % 1011,7 hPa 0,0 l/m 0,0 km/h (0 Bft) O-NO 67 0 min 14,1 C 16,2 C 0,0 km/h (0 Bft)
04.08.2021 21:25 17,4 C 19,1 C 16,3 C 16,9 C 16,0 C 0,0 C 81 % 90 % 1011,7 hPa 0,0 l/m 0,0 km/h (0 Bft) O-NO 67 0 min 14,1 C 16,0 C 0,0 km/h (0 Bft)
04.08.2021 21:30 17,4 C 19,1 C 16,3 C 16,9 C 16,0 C 0,0 C 81 % 90 % 1011,7 hPa 0,0 l/m 0,0 km/h (0 Bft) O-NO 67 0 min 14,1 C 16,0 C 0,0 km/h (0 Bft)
04.08.2021 21:35 17,3 C 19,1 C 16,3 C 16,8 C 15,8 C 0,0 C 81 % 90 % 1011,6 hPa 0,0 l/m 0,0 km/h (0 Bft) O-NO 67 0 min 14,0 C 15,8 C 0,0 km/h (0 Bft)
04.08.2021 21:40 17,3 C 19,1 C 16,1 C 16,8 C 15,7 C 0,0 C 82 % 90 % 1011,6 hPa 0,0 l/m 0,0 km/h (0 Bft) O-NO 67 0 min 14,2 C 15,7 C 0,0 km/h (0 Bft)
04.08.2021 21:45 17,1 C 19,1 C 16,1 C 16,6 C 15,7 C 0,0 C 82 % 91 % 1011,6 hPa 0,0 l/m 0,0 km/h (0 Bft) O-NO 67 0 min 14,0 C 15,7 C 0,0 km/h (0 Bft)
04.08.2021 21:50 17,1 C 19,1 C 16,0 C 16,6 C 15,7 C 0,0 C 82 % 91 % 1011,6 hPa 0,0 l/m 0,0 km/h (0 Bft) O-NO 67 0 min 14,0 C 15,7 C 0,0 km/h (0 Bft)
04.08.2021 21:55 17,0 C 19,2 C 16,0 C 16,5 C 15,6 C 0,0 C 82 % 91 % 1011,5 hPa 0,0 l/m 0,0 km/h (0 Bft) O-NO 67 0 min 13,9 C 15,6 C 0,0 km/h (0 Bft)
04.08.2021 22:00 16,9 C 19,2 C 15,9 C 16,5 C 15,6 C 0,0 C 83 % 91 % 1011,5 hPa 0,0 l/m 0,0 km/h (0 Bft) O-NO 67 0 min 14,0 C 15,6 C 0,0 km/h (0 Bft)
04.08.2021 22:05 16,9 C 19,2 C 15,9 C 16,5 C 15,6 C 0,0 C 83 % 91 % 1011,5 hPa 0,0 l/m 0,0 km/h (0 Bft) O-NO 67 0 min 14,0 C 15,6 C 0,0 km/h (0 Bft)
04.08.2021 22:10 16,8 C 19,2 C 15,9 C 16,4 C 15,6 C 0,0 C 84 % 91 % 1011,5 hPa 0,0 l/m 0,0 km/h (0 Bft) O-NO 67 0 min 14,1 C 15,6 C 0,0 km/h (0 Bft)
04.08.2021 22:15 16,8 C 19,2 C 15,8 C 16,4 C 15,6 C 0,0 C 84 % 91 % 1011,4 hPa 0,0 l/m 0,0 km/h (0 Bft) O-NO 67 0 min 14,1 C 15,6 C 0,0 km/h (0 Bft)
04.08.2021 22:20 16,8 C 19,2 C 15,8 C 16,4 C 15,5 C 0,0 C 84 % 91 % 1011,4 hPa 0,0 l/m 0,0 km/h (0 Bft) O-NO 67 0 min 14,1 C 15,5 C 0,0 km/h (0 Bft)
04.08.2021 22:25 16,6 C 19,2 C 15,7 C 16,2 C 15,4 C 0,0 C 84 % 92 % 1011,4 hPa 0,0 l/m 0,0 km/h (0 Bft) O-NO 67 0 min 13,9 C 15,4 C 0,0 km/h (0 Bft)
04.08.2021 22:30 16,7 C 19,2 C 15,7 C 16,2 C 15,2 C 0,0 C 84 % 92 % 1011,4 hPa 0,0 l/m 0,0 km/h (0 Bft) O-NO 67 0 min 14,0 C 15,2 C 0,0 km/h (0 Bft)
04.08.2021 22:35 16,6 C 19,2 C 15,6 C 16,1 C 15,2 C 0,0 C 84 % 92 % 1011,4 hPa 0,0 l/m 0,0 km/h (0 Bft) O-NO 67 0 min 13,9 C 15,2 C 0,0 km/h (0 Bft)
04.08.2021 22:40 16,4 C 19,2 C 15,5 C 16,0 C 15,2 C 0,0 C 85 % 92 % 1011,4 hPa 0,0 l/m 0,0 km/h (0 Bft) O-NO 67 0 min 13,9 C 15,2 C 1,6 km/h (1 Bft)
04.08.2021 22:45 16,3 C 19,2 C 15,5 C 15,9 C 15,2 C 0,0 C 85 % 92 % 1011,4 hPa 0,0 l/m 0,2 km/h (0 Bft) O-NO 67 0 min 13,8 C 15,2 C 0,0 km/h (0 Bft)
04.08.2021 22:50 16,3 C 19,2 C 15,4 C 15,9 C 15,2 C 0,0 C 85 % 92 % 1011,4 hPa 0,0 l/m 0,2 km/h (0 Bft) O-NO 67 0 min 13,8 C 15,2 C 0,0 km/h (0 Bft)
04.08.2021 22:55 16,1 C 19,2 C 15,5 C 15,8 C 15,2 C 0,0 C 85 % 92 % 1011,4 hPa 0,0 l/m 0,0 km/h (0 Bft) O-NO 67 0 min 13,6 C 15,2 C 0,0 km/h (0 Bft)
04.08.2021 23:00 16,1 C 19,2 C 15,4 C 15,8 C 15,2 C 0,0 C 86 % 92 % 1011,4 hPa 0,0 l/m 0,0 km/h (0 Bft) O-NO 67 0 min 13,8 C 15,2 C 0,0 km/h (0 Bft)
04.08.2021 23:05 16,1 C 19,2 C 15,4 C 15,8 C 15,3 C 0,0 C 86 % 92 % 1011,4 hPa 0,0 l/m 0,0 km/h (0 Bft) O-NO 67 0 min 13,8 C 15,3 C 0,0 km/h (0 Bft)
04.08.2021 23:10 16,1 C 19,2 C 15,4 C 15,8 C 15,3 C 0,0 C 86 % 92 % 1011,4 hPa 0,0 l/m 0,0 km/h (0 Bft) O-NO 67 0 min 13,8 C 15,3 C 0,0 km/h (0 Bft)
04.08.2021 23:15 15,9 C 19,2 C 15,4 C 15,7 C 15,4 C 0,0 C 86 % 92 % 1011,4 hPa 0,0 l/m 0,0 km/h (0 Bft) O-NO 67 0 min 13,6 C 15,4 C 0,0 km/h (0 Bft)
04.08.2021 23:20 15,9 C 19,2 C 15,4 C 15,7 C 15,4 C 0,0 C 86 % 92 % 1011,4 hPa 0,0 l/m 0,0 km/h (0 Bft) O-NO 67 0 min 13,6 C 15,4 C 0,0 km/h (0 Bft)
04.08.2021 23:25 15,8 C 19,2 C 15,3 C 15,6 C 15,2 C 0,0 C 86 % 92 % 1011,4 hPa 0,0 l/m 0,0 km/h (0 Bft) O-NO 67 0 min 13,5 C 15,2 C 0,0 km/h (0 Bft)
04.08.2021 23:30 15,8 C 19,2 C 15,2 C 15,6 C 15,2 C 0,0 C 86 % 92 % 1011,4 hPa 0,0 l/m 0,0 km/h (0 Bft) O-NO 67 0 min 13,5 C 15,2 C 0,0 km/h (0 Bft)
04.08.2021 23:35 15,7 C 19,2 C 15,2 C 15,5 C 15,2 C 0,0 C 86 % 92 % 1011,3 hPa 0,0 l/m 0,0 km/h (0 Bft) O-NO 67 0 min 13,4 C 15,2 C 0,0 km/h (0 Bft)
04.08.2021 23:40 15,7 C 19,2 C 15,3 C 15,5 C 15,2 C 0,0 C 86 % 93 % 1011,3 hPa 0,0 l/m 0,0 km/h (0 Bft) O-NO 67 0 min 13,4 C 15,2 C 0,0 km/h (0 Bft)
04.08.2021 23:45 15,6 C 19,2 C 15,3 C 15,5 C 15,2 C 0,0 C 86 % 93 % 1011,3 hPa 0,0 l/m 0,0 km/h (0 Bft) O-NO 67 0 min 13,3 C 15,2 C 0,0 km/h (0 Bft)
04.08.2021 23:50 15,6 C 19,2 C 15,3 C 15,5 C 15,2 C 0,0 C 86 % 93 % 1011,3 hPa 0,0 l/m 0,0 km/h (0 Bft) O-NO 67 0 min 13,3 C 15,2 C 0,0 km/h (0 Bft)
04.08.2021 23:55 15,6 C 19,2 C 15,3 C 15,5 C 15,2 C 0,0 C 87 % 93 % 1011,4 hPa 0,0 l/m 0,0 km/h (0 Bft) O-NO 67 0 min 13,4 C 15,2 C 0,0 km/h (0 Bft)
_ Min-Zeit 00:50 13:10 00:15 00:10 00:10 14:35 18:20 18:20 23:35 - 00:00 - - - 00:50 00:10 00:00
Minimum _ 10,9 C 18,2 C 12,1 C 11,8 C 11,8 C 0,0 C 69 % 83 % 1011,3 hPa - 0,0 km/h (0 Bft) - - - 9,0 C 11,8 C 0,0 km/h (0 Bft)
_ Max-Zeit 18:35 21:55 17:50 13:00 13:00 13:00 08:45 10:50 09:35 00:00 15:05 - - 06:06 16:15 13:00 13:40
Maximum _ 21,3 C 19,2 C 20,0 C 29,3 C 29,3 C 11,3 C 90 % 94 % 1013,9 hPa 0,0 l/m 4,0 km/h
O-NO (1 Bft)
- - 6 min 16,7 C 29,3 C 7,7 km/h
NO (2 Bft)
Durchschnitt _ 15,7 C 18,6 C 15,9 C 18,0 C 17,9 C 2,3 C 84 % 91 % 1012,7 hPa #0,0 l/m 0,2 km/h (0 Bft) NO - #7:00 h 13,0 C 17,9 C 0,4 km/h (0 Bft)
2021 www.wetterstation-wechselburg.de